[[{"header":{"parameterUnit":"m.s-1","parameterCategory":1,"la1":30.2991,"la2":30.254,"lo1":-89.0895,"lo2":-89.0444,"dy":0.0017,"dx":0.0017,"nx":28,"ny":28,"refTime":"2025-05-19T21:00:00:Z","depth":0,"parameterNumber":2,"parameterNumberName":"U-component_of_WINDS"},"data":[0,0,0,0,0,0,0,0,0,0,0,0,0,0,0,0,0,0,0,0,0,0,0,0,0,0,0,0,0,0,0,0,0,0,0,0,0,0,0,0,0,0,0,0,0,0,0,0,0,0,0,0,0,0,0,0,0,0,0.7097,0.7097,0,0.7096,0.7096,0.7096,0.7105,0.7105,0.7105,0.7105,0.7104,0.7104,0.7104,0,0,0,0,0,0,0,0,0,0,0,0,0,0.7107,0.7106,0.7097,0.7097,0.7097,0.7096,0.7096,0.7096,0.7105,0.7105,0.7105,0.7105,0.7104,0.7104,0.7104,0,0,0,0,0,0,0,0,0,0,0,0,0,0.7104,0.7106,0.7097,0.7101,0.7102,0.7096,0.7096,0.7096,0.7105,0.7105,0.7105,0.7106,0.7105,0.7104,0.7104,0.7094,0,0,0.7103,0.7103,0,0,0,0,0,0,0,0,0.7104,0.7103,0.7101,0.7101,0.7101,0.7101,0.7099,0.7095,0.7104,0.7103,0.7105,0.7106,0.7103,0.7103,0.7102,0.7094,0.7094,0.7103,0.7102,0.7102,0.7102,0,0,0,0,0,0,0,0.7104,0.7103,0.7097,0.7101,0.7101,0.7103,0.7103,0.7098,0.7101,0.7104,0.7104,0.7104,0.7103,0.7102,0.7102,0.7094,0.7103,0.7102,0.7102,0.7102,0.7079,0.7079,0,0,0,0,0,0,0.7104,0.7104,0.7097,0.7097,0.7103,0.7103,0.7103,0.7101,0.7101,0.7102,0.7104,0.7104,0.7103,0.7102,0.7102,0.7091,0.7102,0.7102,0.7102,0.708,0.7079,0.7079,0,0,0,0,0,0,0.7104,0.7103,0.7097,0.71,0.71,0.7102,0.71,0.71,0.7099,0.7101,0.7102,0.7102,0.7103,0.7102,0.7096,0.7091,0.7102,0.7101,0.708,0.7079,0.7079,0.7069,0,0,0,0,0,0,0.7104,0.7103,0.7099,0.71,0.7099,0.7091,0.7099,0.71,0.7099,0.71,0.71,0.71,0.7103,0.7097,0.7096,0.7091,0.7101,0.708,0.708,0.7079,0.707,0.7068,0.7067,0,0,0,0,0,0.7104,0.7097,0.7099,0.7098,0.7095,0.7091,0.709,0.7094,0.7098,0.7095,0.7096,0.71,0.7092,0.7096,0.7095,0.709,0.7081,0.708,0.7079,0.7071,0.7069,0.7067,0,0,0,0,0,0,0.7096,0.7097,0.71,0.7092,0.7091,0.7092,0.7088,0.7091,0.7089,0.709,0.7095,0.7095,0.7088,0.7088,0.7093,0.7081,0.7087,0.7086,0.7081,0.7079,0.7078,0.7078,0.7101,0,0,0,0,0,0.7093,0.7089,0.709,0.7084,0.7083,0.7085,0.7084,0.7086,0.7086,0.7086,0.7086,0.7086,0.7083,0.7081,0.7078,0.707,0.707,0.7066,0.7064,0.7063,0.7062,0.7058,0.7056,0.7076,0.7076,0.7076,0,0,0.7087,0.7087,0.7085,0.7082,0.7082,0.7078,0.7085,0.7081,0.7078,0.7085,0.7079,0.708,0.7079,0.7072,0.7069,0.7072,0.7057,0.7062,0.7061,0.7061,0.7057,0.7055,0.7054,0.7075,0.7075,0.7075,0,0,0.7074,0.7074,0.7068,0.7068,0.7067,0.7069,0.7067,0.7068,0.7069,0.7063,0.7068,0.7065,0.706,0.7059,0.7058,0.7045,0.7049,0.7044,0.7037,0.7032,0.7031,0.703,0.7025,0.7024,0.7043,0.7043,0.7043,0,0.7067,0.7062,0.7065,0.7061,0.7059,0.7065,0.7059,0.7059,0.7057,0.7056,0.706,0.7053,0.7053,0.7046,0.7043,0.7042,0.7041,0.7044,0.7031,0.703,0.7028,0.7024,0.7023,0.7043,0.7043,0.7043,0.7043,0,0.7053,0.705,0.7045,0.7044,0.7042,0.7037,0.7039,0.7037,0.7039,0.7041,0.7035,0.7035,0.7033,0.7031,0.7033,0.7024,0.7026,0.703,0.7037,0.7026,0.7022,0.7021,0.7042,0.7042,0.7042,0.7042,0,0,0.7036,0.7036,0.7034,0.7034,0.7033,0.7031,0.7026,0.7023,0.7022,0.702,0.7017,0.7012,0.7016,0.7014,0.7017,0.7013,0.7003,0.7018,0.7018,0.7015,0.6994,0.6991,0.6989,0.7006,0.7005,0.7005,0.6994,0,0.7024,0.7016,0.7019,0.7011,0.7007,0.7012,0.7008,0.7007,0.7008,0.7006,0.7007,0.7004,0.7008,0.7008,0.7004,0.7005,0.6999,0.7006,0.7003,0.7003,0.7003,0.6988,0.6985,0.6974,0.6993,0.6992,0.6992,0,0.701,0.7008,0.7,0.7,0.6998,0.6995,0.6993,0.699,0.6989,0.699,0.6989,0.6992,0.6987,0.6993,0.6987,0.6991,0.699,0.699,0.699,0.699,0.6997,0.6988,0.6971,0.697,0.699,0.699,0.699,0,0.6999,0.6994,0.6988,0.6988,0.6988,0.6985,0.6985,0.6984,0.6983,0.6981,0.698,0.6978,0.6977,0.6975,0.6977,0.6981,0.6971,0.6977,0.6972,0.6972,0.697,0.697,0.6953,0.6968,0.6968,0.6968,0.6968,0,0.6986,0.6981,0.6983,0.698,0.6974,0.6977,0.6972,0.6972,0.6971,0.6968,0.6972,0.6969,0.6972,0.6969,0.6971,0.6966,0.6965,0.6966,0.6967,0.6966,0.6966,0.6966,0.6967,0.6967,0.6968,0.6968,0.6968,0,0.6973,0.6974,0.6969,0.6969,0.6969,0.6965,0.6965,0.6962,0.6963,0.6959,0.6958,0.696,0.6957,0.6959,0.6956,0.6957,0.695,0.6951,0.695,0.6951,0.6946,0.6947,0.6929,0.6927,0.6942,0.6942,0.6942,0,0.6965,0.6961,0.6961,0.6959,0.6959,0.6955,0.6954,0.6956,0.6955,0.6953,0.695,0.6948,0.6946,0.6941,0.6942,0.6939,0.6941,0.6935,0.6941,0.694,0.6941,0.6942,0.6942,0.6934,0.6934,0.6933,0.6933,0,0.6951,0.6952,0.6949,0.6947,0.6945,0.6943,0.6942,0.694,0.6943,0.6941,0.6937,0.6936,0.6933,0.693,0.6928,0.6928,0.6931,0.6931,0.693,0.693,0.693,0.693,0.6948,0.6932,0.6932,0.6932,0.6932,0.6932,0.694,0.6937,0.6937,0.6934,0.6933,0.6932,0.6929,0.6929,0.6927,0.6925,0.6926,0.6922,0.6922,0.6919,0.6919,0.6916,0.6919,0.6917,0.6916,0.6916,0.6916,0.6929,0.6916,0.6916,0.6916,0.6916,0.6916,0,0.6927,0.6927,0.6924,0.6922,0.692,0.6923,0.6921,0.6919,0.6916,0.6915,0.6913,0.691,0.6907,0.6907,0.6905,0.6903,0.6904,0.6902,0.6903,0.6903,0.6913,0.6915,0.6901,0.6901,0.6901,0.6901,0.6901,0.6901,0.692,0.6915,0.6916,0.691,0.691,0.6906,0.6906,0.6904,0.6904,0.69,0.6897,0.6898,0.6897,0.6895,0.6893,0.6893,0.6892,0.689,0.689,0.6901,0.6902,0.6903,0.6905,0.6889,0.6889,0.688,0.688,0.688]},{"header":{"parameterUnit":"m.s-1","parameterCategory":1,"la1":30.2991,"la2":30.254,"lo1":-89.0895,"lo2":-89.0444,"dy":0.0017,"dx":0.0017,"nx":28,"ny":28,"refTime":"2025-05-19T21:00:00:Z","depth":0,"parameterNumber":3,"parameterNumberName":"V-component_of_WINDS"},"data":[0,0,0,0,0,0,0,0,0,0,0,0,0,0,0,0,0,0,0,0,0,0,0,0,0,0,0,0,0,0,0,0,0,0,0,0,0,0,0,0,0,0,0,0,0,0,0,0,0,0,0,0,0,0,0,0,0,0,6.3492,6.3492,0,6.3496,6.3496,6.3496,6.3483,6.3483,6.3482,6.3482,6.3483,6.3484,6.3484,0,0,0,0,0,0,0,0,0,0,0,0,0,6.3472,6.3472,6.3492,6.3492,6.3492,6.3496,6.3496,6.3496,6.3483,6.3483,6.3482,6.3482,6.3483,6.3484,6.3484,0,0,0,0,0,0,0,0,0,0,0,0,0,6.3478,6.3472,6.3492,6.3486,6.3486,6.3496,6.3496,6.3496,6.3483,6.3483,6.3482,6.3482,6.3483,6.3484,6.3484,6.3499,0,0,6.3486,6.3486,0,0,0,0,0,0,0,0,6.3478,6.3479,6.3487,6.3487,6.3486,6.3489,6.3489,6.3497,6.3483,6.3484,6.3482,6.3481,6.3485,6.3486,6.3488,6.3499,6.3499,6.3486,6.3486,6.3487,6.3487,0,0,0,0,0,0,0,6.3478,6.3479,6.3493,6.3487,6.3487,6.3483,6.3483,6.3491,6.3488,6.3484,6.3483,6.3484,6.3485,6.3487,6.3488,6.35,6.3486,6.3487,6.3487,6.3487,6.3525,6.3526,0,0,0,0,0,0,6.3478,6.3479,6.3493,6.3494,6.3481,6.3484,6.3484,6.3488,6.3488,6.3487,6.3484,6.3483,6.3486,6.3487,6.3488,6.3506,6.3487,6.3487,6.3488,6.3525,6.3525,6.3526,0,0,0,0,0,0,6.3478,6.348,6.3493,6.3486,6.3487,6.3485,6.3489,6.3489,6.3491,6.3488,6.3487,6.3487,6.3486,6.3487,6.3497,6.3506,6.3487,6.3488,6.3524,6.3525,6.3526,6.3542,0,0,0,0,0,0,6.3477,6.348,6.3486,6.3486,6.3488,6.3503,6.349,6.3489,6.3492,6.3491,6.349,6.349,6.3486,6.3496,6.3498,6.3506,6.3488,6.3523,6.3524,6.3525,6.3541,6.3544,6.3546,0,0,0,0,0,6.3477,6.3489,6.3486,6.3488,6.3495,6.3503,6.3504,6.35,6.3493,6.3499,6.3497,6.349,6.3505,6.3497,6.3499,6.3508,6.3522,6.3524,6.3525,6.354,6.3543,6.3546,0,0,0,0,0,0,6.3488,6.3489,6.3485,6.3499,6.3501,6.3501,6.3508,6.3504,6.3507,6.3506,6.3499,6.3499,6.3511,6.351,6.3502,6.3523,6.3512,6.3514,6.3523,6.3526,6.3529,6.3528,6.3489,0,0,0,0,0,6.3492,6.35,6.35,6.3511,6.3513,6.3511,6.3514,6.3511,6.3513,6.3513,6.3513,6.3514,6.3519,6.3523,6.3527,6.3541,6.3541,6.3548,6.3551,6.3553,6.3555,6.3563,6.3566,6.3531,6.3531,6.3531,0,0,6.3501,6.3502,6.3507,6.3514,6.3515,6.3523,6.3512,6.3519,6.3525,6.3514,6.3524,6.3524,6.3525,6.3538,6.3543,6.3538,6.3564,6.3555,6.3557,6.3557,6.3565,6.3568,6.3571,6.3532,6.3532,6.3532,0,0,6.352,6.3522,6.3532,6.3535,6.3538,6.3537,6.3539,6.3541,6.354,6.3551,6.3543,6.3549,6.3558,6.356,6.3562,6.3584,6.3578,6.3586,6.3599,6.3607,6.361,6.3612,6.362,6.3623,6.3587,6.3587,6.3587,0,6.3529,6.3541,6.3538,6.3547,6.355,6.3543,6.3554,6.3556,6.356,6.3562,6.3557,6.3569,6.3569,6.3582,6.3588,6.359,6.3592,6.3585,6.361,6.3612,6.3614,6.3622,6.3625,6.3588,6.3588,6.3588,6.3588,0,6.3553,6.3561,6.3569,6.3575,6.358,6.3589,6.3587,6.3592,6.3589,6.3588,6.3599,6.36,6.3605,6.3608,6.3604,6.3621,6.3618,6.3611,6.36,6.3619,6.3626,6.3629,6.359,6.359,6.3589,6.3589,0,0,6.3577,6.3583,6.3586,6.359,6.3594,6.36,6.3609,6.3616,6.362,6.3624,6.3632,6.364,6.3635,6.3637,6.3634,6.3641,6.3659,6.3633,6.3633,6.3638,6.3678,6.3683,6.3687,6.3655,6.3656,6.3656,6.3678,0,6.3596,6.3614,6.3613,6.3629,6.3637,6.3631,6.364,6.3643,6.3643,6.365,6.3649,6.3656,6.3648,6.3649,6.3656,6.3655,6.3667,6.3654,6.3662,6.3662,6.3662,6.369,6.3695,6.3716,6.3681,6.3681,6.3682,0,6.362,6.3627,6.3645,6.3649,6.3653,6.366,6.3667,6.3673,6.3677,6.3677,6.368,6.3676,6.3686,6.3676,6.3689,6.368,6.3683,6.3684,6.3685,6.3685,6.3673,6.3691,6.3722,6.3725,6.3686,6.3686,6.3685,0,6.3637,6.365,6.3663,6.3666,6.3671,6.3677,6.3679,6.3683,6.3687,6.3693,6.3696,6.3702,6.3705,6.3709,6.3707,6.37,6.3721,6.371,6.3721,6.3721,6.3725,6.3724,6.3756,6.3727,6.3727,6.3727,6.3727,0,6.3658,6.3669,6.367,6.3678,6.3691,6.3689,6.3701,6.3703,6.3707,6.3714,6.3709,6.3717,6.3713,6.372,6.3718,6.373,6.3731,6.3731,6.373,6.3731,6.3731,6.3733,6.3731,6.3728,6.3728,6.3728,6.3728,0,6.3678,6.3679,6.3693,6.3698,6.37,6.3709,6.3713,6.372,6.372,6.373,6.3733,6.3733,6.3741,6.374,6.3748,6.3747,6.3761,6.3759,6.376,6.376,6.377,6.3769,6.3804,6.3809,6.3777,6.3777,6.3778,0,6.3691,6.37,6.3707,6.3712,6.3716,6.3725,6.373,6.3729,6.3734,6.3741,6.3747,6.3755,6.3762,6.3775,6.3775,6.3782,6.378,6.3792,6.378,6.3782,6.378,6.3779,6.378,6.3793,6.3794,6.3794,6.3794,0,6.3714,6.3715,6.3724,6.3733,6.374,6.3746,6.3752,6.3757,6.3756,6.3763,6.3772,6.3777,6.3787,6.3795,6.3802,6.3803,6.3799,6.3798,6.3801,6.3802,6.3802,6.3802,6.3766,6.3797,6.3797,6.3796,6.3796,6.3796,6.3731,6.374,6.3746,6.3756,6.3761,6.3767,6.3775,6.3777,6.3785,6.3794,6.3793,6.3804,6.3808,6.3817,6.382,6.3828,6.3823,6.3827,6.3828,6.3829,6.383,6.3802,6.3829,6.3829,6.3828,6.3828,6.3828,0,6.3755,6.376,6.3769,6.3778,6.3786,6.3783,6.379,6.3797,6.3806,6.3812,6.3819,6.383,6.3838,6.384,6.3848,6.3854,6.3852,6.3856,6.3855,6.3856,6.3834,6.3831,6.3857,6.3857,6.3857,6.3857,6.3857,6.3857,6.3768,6.3782,6.3784,6.3801,6.3805,6.3816,6.3821,6.3826,6.3831,6.3844,6.3851,6.3853,6.3858,6.3866,6.3874,6.3874,6.3877,6.3882,6.3881,6.386,6.3857,6.3855,6.3852,6.3882,6.3882,6.3903,6.3903,6.3903]}]]